User: anonymous   Login
Location: Dammartin
(48.9032°N, 1.6195°E)
Time: 23:36:44
(UTC+00:00)
Language:

ITAMSAT 1 - Orbit

View from above orbital plane
View from above orbital plane
View from above satellite
View from above satellite

Ground track
Ground track

The orbit data is extracted from the following two-line orbital elements,

1 22826U 93061D   23334.72669011  .00000419  00000-0  17743-3 0  9995
2 22826  98.8144  19.9888 0007947 289.6477  70.3847 14.30758998574626
Epoch (UTC): 30 November 2023 17:26:26
Eccentricity: 0.0007947
inclination: 98.8144°
perigee height: 783 km
apogee height: 795 km
right ascension of ascending node: 19.9888°
argument of perigee: 289.6477°
revolutions per day: 14.30758998
mean anomaly at epoch: 70.3847°
orbit number at epoch: 57462

The dashed part of the orbit path shows where the satellite is in the earth's shadow,  

DLR